sat.trackr.live / text

‹ back to catalog

SATELIOT_4

NORAD 60537 · 2024-149BX

PAYLOAD ACTIVE UNKNOWN

§ Identity

Operator
Country
SPN
Launch date
2024-08-16
Launch site
AFWTR
Launch vehicle
Mass (kg)
RCS (m²)

External: N2YO · Heavens-Above · Gunter

§ Orbital elements

Epoch: 2026-09-22T16:55:32.010240Z

Period
96.20 min
Inclination
97.6665°
Eccentricity
0.0003589
Mean motion
14.96947291 rev/d
Perigee alt
573.8 km
Apogee alt
578.8 km
Semi-major
6,954.5 km
B*
8.0050e-5
RAAN
338.3186°
Arg perigee
77.2132°
Mean anomaly
282.9491°
Rev number
11,456

§ Raw data

SATELIOT_41 60537U 24149BX  26265.70523160  .00000863  00000+0  80050-4 0  99992 60537  97.6665 338.3186 0003589  77.2132 282.9491 14.96947291114565

JSON: /api/v1/satellites/60537 · /tle

For live sub-satellite position, see the globe view (requires WebGL).

§ Visibility from observer

Set your observer location to see the next 7 days of passes ≥ 10°. The values pass through the URL so the page stays shareable.

No JS? Fill the form by hand. The geolocation button needs JavaScript.